EHI
13 13 12 11 12 10 9 10 9 8 7 6 6 6 6 5 4 5 4 2 0 0 0 0 0 0 1 2 2 1 0 0 0 0 0 0 0 0
13 11 10 9 9 9 8 8 8 7 6 6 5 5 5 4 4 5 5 3 1 0 0 0 0 0 0 1 1 0 0 0 0 0 0 0 0 0
9 8 7 6 6 6 6 6 7 6 5 3 3 3 4 3 3 4 5 4 3 1 0 0 0 0 0 0 0 0 0 0 0 0 0 0 0 0
5 4 4 5 5 5 6 6 6 5 3 1 1 1 2 1 1 2 3 3 3 1 0 0 0 0 0 0 0 0 0 0 0 0 0 0 0 0
4 4 4 4 5 7 7 6 6 5 2 1 0 1 1 0 0 0 1 3 2 0 0 0 0 0 0 0 0 0 0 0 0 0 0 0 0 0
5 4 5 5 5 6 7 6 6 5 3 1 0 0 0 0 0 0 1 2 2 1 2 1 0 0 0 0 0 0 0 0 0 0 0 0 0 0
7 6 5 4 3 2 3 4 5 4 4 2 1 0 0 0 0 0 0 1 2 3 4 3 2 1 1 0 1 1 0 0 0 0 0 0 0 0
11 9 6 3 2 1 1 1 2 3 4 4 2 1 0 0 0 0 0 1 2 3 3 3 3 2 1 1 2 2 1 0 0 0 0 0 0 0
13 10 6 3 3 3 2 0 1 1 3 4 3 1 0 0 0 0 1 1 1 1 1 1 2 2 1 1 3 2 1 0 0 0 0 0 0 0
11 9 7 4 4 4 3 2 2 2 2 1 1 0 0 0 1 1 1 1 1 0 0 0 1 1 2 2 3 2 1 0 0 0 0 0 0 0
10 9 7 5 3 2 3 3 4 4 2 0 0 0 0 0 0 0 0 0 0 0 1 1 1 1 2 3 3 3 1 0 0 0 0 0 0 0
11 9 6 4 2 1 2 4 5 5 3 1 1 0 0 0 0 0 0 0 0 0 1 2 2 2 3 3 3 3 2 1 0 0 0 0 0 0
11 9 6 3 1 0 1 3 4 5 4 3 2 1 1 1 0 0 1 1 1 1 2 3 3 3 3 3 3 3 3 2 0 0 0 0 0 0
11 9 6 2 1 0 0 1 1 2 3 3 3 3 2 2 2 2 3 4 3 3 4 5 4 3 3 3 3 3 3 1 0 0 0 0 0 0
9 8 4 1 0 0 0 0 0 1 3 3 3 3 3 3 3 5 5 5 3 3 4 5 4 4 3 3 3 3 2 1 0 0 0 0 1 1
8 7 5 3 2 2 2 1 1 2 3 3 3 3 3 3 4 4 4 3 3 3 3 3 3 4 4 3 2 1 1 0 0 0 0 1 1 2
8 8 8 7 6 6 5 3 2 2 4 4 4 4 3 3 3 3 3 2 2 2 2 2 1 2 3 2 1 0 0 0 0 0 1 1 1 1
8 10 10 10 9 8 7 5 4 4 5 5 5 4 3 2 3 3 3 2 1 1 2 1 0 0 1 1 0 0 0 0 0 0 0 0 0 0
8 10 11 10 9 8 7 6 5 5 5 4 4 4 3 3 3 3 3 2 2 2 2 1 0 0 0 0 0 0 0 0 0 0 0 0 0 0
7 9 11 10 9 8 7 6 4 4 4 3 3 3 4 4 3 3 3 3 3 3 3 2 1 0 0 0 0 0 0 0 0 0 0 0 0 0
6 8 10 10 9 8 7 5 4 3 3 3 3 4 5 5 4 4 3 3 3 3 3 3 2 1 0 0 0 0 0 0 0 0 0 0 0 0
5 6 8 9 9 7 5 5 4 3 3 3 3 4 5 5 4 4 4 3 3 3 3 3 2 1 0 0 0 0 0 0 0 0 0 0 0 0
4 5 7 8 8 5 4 4 4 3 3 3 3 4 5 5 4 5 4 3 3 3 3 3 1 0 0 0 0 0 0 0 0 0 0 0 0 0
Wind_Speed
4 5 4 3 3 3 3 3 3 3 3 3 2 2 1 1 1 1 1 4 3 3 2 2 2 2 2 1 1 1 1 2 2 2 2 2 3 3
2 3 3 3 2 3 3 3 4 4 3 1 1 1 1 1 2 2 2 5 5 4 3 3 3 2 2 2 1 1 2 3 3 3 2 2 2 3
3 3 4 3 3 3 3 3 3 3 3 2 1 2 2 3 2 3 3 3 3 6 4 3 3 3 2 2 2 2 2 3 3 3 2 2 2 2
4 3 4 3 3 4 3 3 3 3 4 3 2 2 3 3 2 4 3 2 2 6 6 4 4 3 3 3 3 3 3 3 3 2 2 2 2 2
3 4 4 4 4 3 4 4 3 3 3 4 3 2 3 2 3 3 3 2 3 5 7 7 6 5 4 4 3 3 3 2 2 2 2 2 2 2
3 3 4 5 4 4 4 4 4 4 4 4 3 3 3 2 3 3 3 3 3 2 2 3 6 8 7 6 5 4 3 3 3 3 3 2 2 2
3 3 3 1 2 3 4 3 3 4 4 4 3 3 2 2 3 4 3 3 3 3 2 3 4 4 6 8 7 5 4 4 4 3 3 3 2 2
3 3 3 4 3 2 1 2 3 4 4 3 3 3 3 4 3 4 3 4 3 2 3 3 3 3 3 3 5 6 6 5 5 4 4 3 3 3
3 3 4 2 3 3 4 5 4 3 4 5 4 4 4 4 4 5 4 5 4 2 3 4 3 3 3 3 8 8 7 7 6 5 4 4 3 3
4 4 4 3 2 2 3 3 3 3 4 5 4 4 4 3 5 6 5 5 5 4 4 4 3 3 2 2 8 9 8 8 7 6 5 5 4 3
4 4 4 3 2 1 3 4 3 3 3 2 3 3 3 4 5 5 4 4 4 3 3 4 3 2 2 2 5 9 8 8 7 7 7 6 5 5
4 4 3 2 3 2 5 5 5 4 3 3 4 5 6 6 7 7 5 5 4 3 2 3 3 3 3 2 2 4 5 7 8 8 7 6 6 4
4 4 3 5 4 4 6 5 3 4 4 5 5 4 4 4 5 5 5 5 5 4 2 3 4 4 4 3 3 3 4 4 5 6 7 7 7 5
4 3 2 6 5 5 5 2 2 5 6 5 5 4 4 4 3 3 4 5 5 5 4 4 4 4 4 4 3 3 3 3 4 4 4 7 7 7
4 1 1 5 5 6 6 5 5 6 5 5 5 5 4 3 3 3 4 5 5 6 5 5 6 5 5 5 4 4 4 4 4 4 4 4 5 5
5 3 6 7 7 5 5 6 6 5 5 5 5 5 4 4 5 5 5 5 5 4 5 6 6 6 6 5 5 4 4 3 4 4 4 4 4 5
4 5 4 4 5 5 5 4 5 5 5 6 5 5 5 5 5 5 5 5 6 5 4 4 5 5 6 5 5 4 4 4 4 4 4 5 5 5
4 4 4 5 5 5 4 4 5 5 5 5 5 5 5 5 5 5 5 5 5 5 4 4 4 4 4 4 5 6 5 4 4 4 5 5 5 5
5 5 5 5 5 4 4 5 5 4 4 5 5 5 5 5 5 5 5 6 6 5 5 5 5 5 5 5 5 6 6 4 4 5 5 5 5 4
5 6 5 5 4 4 4 4 4 4 4 5 5 6 5 5 5 5 5 6 6 6 5 5 6 6 6 5 4 4 7 6 5 5 4 4 4 2
5 5 5 4 5 5 4 4 5 5 5 5 5 6 6 6 6 6 6 6 6 6 6 5 4 5 5 5 5 4 3 5 4 4 5 4 4 4
5 5 5 5 5 4 4 4 5 5 5 6 6 6 6 6 6 7 6 6 6 6 6 5 4 5 5 6 6 5 4 4 4 4 4 4 4 4
4 5 5 4 4 4 4 5 6 5 5 6 6 5 5 5 5 6 6 6 5 6 6 5 5 4 4 5 5 5 5 4 3 3 3 5 6 5
Wind_Direction
230 225 235 231 231 228 231 239 249 247 230 208 209 165 202 175 191 223 203 132 159 170 175 182 186 179 162 156 164 177 165 156 162 168 178 189 187 193
239 246 244 238 230 230 231 239 254 268 270 219 226 196 220 227 170 230 213 164 181 180 184 193 195 187 177 166 157 152 151 149 147 150 163 175 183 193
229 222 231 246 246 239 230 235 242 253 255 245 233 195 212 247 222 238 224 222 170 168 182 194 199 195 185 181 176 161 150 156 160 162 165 164 176 194
229 229 229 222 231 250 245 243 242 245 247 243 233 219 225 226 234 255 245 231 222 155 176 191 195 194 191 186 179 174 168 172 178 181 180 180 188 191
229 226 227 224 234 240 250 248 242 235 236 234 234 220 234 225 234 247 246 255 247 167 176 184 186 186 188 187 180 172 169 178 190 191 191 194 197 199
238 235 230 231 235 238 239 243 250 249 239 241 230 222 219 215 240 250 242 231 252 239 208 193 184 192 191 187 182 175 174 180 183 183 185 192 201 203
228 236 239 260 340 292 283 261 251 254 247 246 246 243 231 231 246 252 256 249 238 247 241 223 198 205 192 189 186 181 180 180 176 168 169 175 182 185
225 230 218 200 179 194 276 307 296 266 268 263 257 257 247 247 255 259 261 256 254 221 251 250 233 231 222 198 162 173 183 181 175 172 172 174 179 181
225 234 244 185 201 199 185 201 220 239 255 268 269 276 265 255 256 253 253 263 273 270 257 258 243 245 237 168 158 175 184 184 179 176 174 177 179 184
228 232 246 236 230 229 232 230 233 223 231 240 261 270 277 265 246 250 249 245 255 246 239 261 248 248 240 189 162 177 186 188 187 183 179 177 178 187
233 234 236 227 120 196 244 244 243 229 207 239 284 283 302 278 260 252 242 244 258 250 227 255 257 255 248 222 171 174 183 185 187 189 191 191 190 195
222 218 209 224 149 203 239 244 247 247 246 222 230 232 238 228 222 239 251 247 256 253 202 237 254 255 245 225 206 182 189 185 191 196 195 194 196 213
231 224 186 159 179 214 247 252 265 274 255 250 244 240 236 233 227 229 246 255 257 258 223 223 249 250 253 241 223 216 211 197 192 195 194 192 198 222
250 249 187 158 193 219 235 247 250 260 255 252 253 254 253 248 241 240 245 257 262 266 261 245 249 248 247 247 242 218 218 213 205 205 201 186 199 215
259 303 161 183 204 217 221 216 223 239 249 254 257 261 261 260 250 234 231 234 243 246 232 233 245 245 247 250 246 236 230 221 214 216 213 205 207 210
246 210 193 203 225 238 211 213 232 243 254 259 262 262 262 247 240 239 236 230 236 237 224 227 240 243 247 249 250 243 237 233 213 216 225 228 223 223
239 232 227 218 224 228 230 230 235 235 240 249 251 251 250 251 248 242 242 243 244 241 227 220 224 229 242 251 244 243 239 235 232 217 218 230 228 230
228 235 237 238 242 244 243 239 236 242 247 251 252 251 251 252 252 247 243 246 247 245 238 225 215 220 224 225 232 242 243 238 234 220 226 232 232 229
216 237 241 242 246 250 253 254 251 249 251 255 256 254 252 251 249 245 241 240 243 241 235 229 224 224 230 234 213 217 242 240 235 234 231 236 240 233
233 243 245 245 247 248 249 255 258 249 239 245 252 254 253 252 249 247 245 244 245 245 239 232 230 228 234 246 250 217 217 235 236 240 240 239 240 208
236 245 249 246 246 249 251 250 250 250 246 245 246 253 253 252 252 251 247 233 240 242 240 237 235 227 237 239 239 231 205 208 244 252 245 241 239 232
246 249 249 252 252 255 253 251 250 251 249 246 247 247 250 253 252 253 252 243 234 237 239 233 208 212 228 234 236 232 226 205 204 226 251 255 260 253
257 258 256 250 248 251 253 255 257 257 254 254 252 249 251 251 254 253 249 248 245 238 235 232 222 217 226 229 238 239 232 227 223 209 214 205 208 219